Regional Weather Roundup
Issued by NWS Northern Indiana

Home | Current Version | Previous Version | Text Only | Print | Product List | Glossary Off
Versions: 1 2 3 4 5 6 7 8 9 10 11 12 13 14 15 16 17 18 19 20 21 22 23 24 25 26 27 28 29 30 31 32 33 34 35 36 37 38 39 40 41 42 43 44 45 46 47 48 49 50

000
ASUS43 KIWX 261900
RWRIWX

KIWX WEATHER ROUNDUP
NATIONAL WEATHER SERVICE NORTHERN INDIANA
300 PM EDT TUE MAY 26 2015

NOTE: "FAIR" INDICATES FEW OR NO CLOUDS BELOW 12,000 FEET WITH NO
SIGNIFICANT WEATHER AND/OR OBSTRUCTIONS TO VISIBILITY.

* THESE STATIONS ARE NOT UNDER NWS QUALITY CONTROL. THEY ALSO MAY NOT
  REPORT WEATHER SUCH AS PRECIPITATION OR FOG.

INZ001>027-262000-
NORTHERN INDIANA

CITY           SKY/WX    TMP DP  RH WIND       PRES   REMARKS
GARY*          RAIN      75  66  73 SW29G40   29.86R VSB 1
SOUTH BEND     HVY RAIN  73  69  87 S12G20    29.86F FOG
ELKHART*       CLOUDY    79  64  61 S17G24    29.85F
GOSHEN         CLOUDY    81  64  56 S21G32    29.86F
ANGOLA*        PTSUNNY   81  75  83 S15       29.90F
FORT WAYNE     CLOUDY    82  63  52 S24G31    29.91F

$$
INZ028>050-262000-
CENTRAL INDIANA

CITY           SKY/WX    TMP DP  RH WIND       PRES   REMARKS
LAFAYETTE      CLOUDY    75  67  76 S13G24    29.89F
KOKOMO*        CLOUDY    73  70  88 SW16      29.91S
MUNCIE*        CLOUDY    83  62  49 S23G32    29.93F
INDIANAPOLIS   CLOUDY    73  65  75 S20G26    29.94R

$$
MIZ043>046-050>051-056>058-064>065-071>073-077>080-262000-
SOUTHWEST LOWER MICHIGAN

CITY           SKY/WX    TMP DP  RH WIND       PRES   REMARKS
BATTLE CREEK   MOSUNNY   82  64  54 S16       29.89F
BENTON HARBOR  CLOUDY    77  65  66 S14G23    29.81F
COLDWATER*     CLOUDY    80  60  50 S8G23     29.90F
HILLSDALE*     PTSUNNY   84  61  45 S12G23    29.93F
HOLLAND        LGT RAIN  78  66  66 SE10      29.84F
GRAND RAPIDS   CLOUDY    80  65  59 S18       29.87F
KALAMAZOO      PTSUNNY   82  63  52 S12G23    29.86F
STURGIS*       LGT RAIN  81  64  57 S15G25    29.87F
THREE RIVERS*  FAIR      82  64  53 S13G26    29.86F

$$
OHZ001>008-015>018-024>025-262000-
NORTHWEST OHIO

CITY           SKY/WX    TMP DP  RH WIND       PRES   REMARKS
DEFIANCE       PTSUNNY   86  61  42 S17G26    29.93F
FINDLAY        PTSUNNY   87  61  41 S21G28    29.96F
TOLEDO EXPRESS PTSUNNY   85  62  46 SW17G29   29.95F
TOLEDO METCALF PTSUNNY   86  62  44 S14G24    29.96F
LIMA           PTSUNNY   84  63  49 S17G25    29.97F

$$
AND FOR LAKE MICHIGAN COASTAL AND OPEN LAKE BUOY OBSERVATIONS

STATION/POSITION TEMP    WIND        PRES    VSBY  WAVE
                 AIR SEA DIR/SP/G                  HT/PER
                 (F)     (DEG/KT/KT) (MB)    (MI)  (FT/S)
BURNS HARBOR      74     190/ 18/ 26 1010.2F
SAINT JOSEPH      77     180/  4/ 15 1011.5F
SOUTH LAKE BUOY   49 38  130/ 12/ 12 1010.9F         1/ 3
4 MI NW BRIDGMAN  69 55  210/ 14/ 17   N/A           2/ 2
MICHIGAN CITY     70 52  180/ 14/ 21   N/A           2/ 2

$$
&&



USA.gov is the U.S. government's official web portal to all federal, state and local government web resources and services.